星链-6280 (STARLINK-6280 )

导读

STARLINK-6280是美国太空探索技术公司(SpaceX)星链(Starlink)互联网卫星星座的一员,于2023年5月14日发射升空。该卫星属于星链项目的扩容卫星,旨在为全球提供低延迟、高速率的卫星互联网服务,尤其覆盖地面网络难以抵达的偏远地区,进一步推动全球互联覆盖能力建设。

基本信息
目录编号:
56531
目录名称:
STARLINK-6280
国际标识:
2023-065AE
轨道中心:
EARTH
卫星名称:
星链-6280
卫星全名:
星链-6280 (STARLINK-6280 )
卫星状态:
在轨 (已飞行1209 天)
发射日期:
2023-05-14 UTC
国别 :
美国 (US)
星等 :
--
轨道信息
数据来源 国际轨道数据 AOE轨道数据
星历时间 2026-09-03T21:04:54+0800
22小时前
查看轨道信息
2026-09-02T08:00:00+0800
2天前
查看轨道信息
半长轴 6861.187km 6861.188km
偏心率 0.0001756 0.0001978
轨道倾角 43.005° 42.998°
近地点辐角 273.497° 259.368°
升交点赤经 273.912° 282.640°
平近点角 86.568° 233.930°
近地点 481.845km 481.693km
远地点 484.255km 484.409km
周期 94.267分钟 94.267分钟
每日圈数 15.275797 15.275796
详细信息
固有亮度:
5
最大亮度:
2.5
卫星平台:
Starlink v1.5
覆盖范围:
全球
运营商:
太空探索技术公司
运营商所在国:
美国
制造商(研发单位):
太空探索技术公司
制造商所在国:
美国
使用方式:
暂无
卫星简介
星链(Starlink)计划是由太空探索技术公司(SpaceX)提出的一个巨型低轨卫星互联网星座项目,计划在2019年至2024年间在太空搭建由约1.2万颗卫星组成的“星链”网络,其中1584颗将部署在地球上空550千米处的近地轨道,并从2020年开始工作。该卫星仍在工作。
2D轨道图
3D轨道图
轨道高度分析图
轨道倾角分析图
轨道综合分析图
查看轨道综合分析图